Location: Columbia
(38.9520°N, 92.3340°W)
Time: 03:41:55
(UTC-05:00)

ISS - Visible Passes

Search period start: 24 March 2019 00:00
Search period end: 03 April 2019 00:00
Orbit: 408 x 411 km, 51.6° (Epoch: 24 March)

Date Brightness Start Highest point End Pass type
(mag) Time Alt. Az. Time Alt. Az. Time Alt. Az.
24 Mar -1.1 21:17:34 10° WNW 21:19:40 16° NNW 21:21:04 13° N visible
25 Mar -1.4 20:26:10 10° WNW 20:28:47 21° NNW 20:31:26 10° NNE visible
26 Mar -0.8 21:14:23 10° NNW 21:15:22 11° NNW 21:16:21 10° N visible
27 Mar -1.0 20:22:38 10° NW 20:24:23 14° NNW 20:26:08 10° NNE visible
29 Mar -0.8 20:19:42 10° NNW 20:20:03 10° N 20:20:22 10° N visible
29 Mar -0.6 21:56:42 10° N 21:56:44 10° N 21:56:44 10° N visible
31 Mar -0.9 21:51:11 10° NNW 21:52:04 14° N 21:52:04 14° N visible
01 Apr -1.3 21:00:50 10° NNW 21:02:24 13° NNE 21:03:20 12° NNE visible
02 Apr -1.1 20:10:36 10° N 20:11:21 11° N 20:12:05 10° NNE visible
02 Apr -1.5 21:45:51 10° NNW 21:47:22 21° NNW 21:47:22 21° NNW visible
